Location: Rio Negrinho
(26.2394°S, 49.4999°W)
Time: 02:31:01
(UTC+00:00)

SEDSat Delta rocket - Pass Details

Date: 06 October 2020
Orbit: 533 x 1000 km, 31.4° (Epoch: 20 October)

Event Time Altitude Azimuth Distance (km) Brightness Sun altitude
Rises 23:23:31 0° 262° (W) 3,441 8.0 -27.5°
Reaches altitude 10° 23:26:19 10° 256° (WSW) 2,427 7.0 -28.1°
Enters shadow 23:31:45 47° 186° (S) 980 4.1 -29.2°
